| time (UTC) | temp C | wind direction | speed KPH | gust KPH | rain 1hr cm | rain 24hr cm | rain mn cm | humidity % | barometer mb |
| 20260906162845 | 32 | 236 | 0.0 | 0.0 | 0.00 | 0.00 | 0.00 | 62 | 1018.2 |
| 20260906162343 | 32 | 246 | 0.0 | 0.0 | 0.00 | 0.00 | 0.00 | 63 | 1018.0 |
| 20260906161839 | 32 | 246 | 0.0 | 0.0 | 0.00 | 0.00 | 0.00 | 66 | 1018.2 |
| 20260906161338 | 31 | 103 | 0.0 | 0.0 | 0.00 | 0.00 | 0.00 | 63 | 1018.3 |
| 20260906160837 | 31 | 299 | 0.0 | 0.0 | 0.00 | 0.00 | 0.00 | 66 | 1018.4 |
| 20260906160331 | 31 | 295 | 0.0 | 0.0 | 0.00 | 0.00 | 0.00 | 67 | 1018.4 |
| 20260906155829 | 31 | 295 | 0.0 | 0.0 | 0.00 | 0.00 | 0.00 | 66 | 1018.4 |
| 20260906155323 | 31 | 295 | 0.0 | 0.0 | 0.00 | 0.00 | 0.00 | 67 | 1018.3 |
| 20260906154820 | 31 | 295 | 0.0 | 0.0 | 0.00 | 0.00 | 0.00 | 68 | 1018.4 |
| 20260906154314 | 30 | 264 | 0.0 | 0.0 | 0.00 | 0.00 | 0.00 | 68 | 1018.5 |
| 20260906153812 | 30 | 295 | 0.0 | 0.0 | 0.00 | 0.00 | 0.00 | 68 | 1018.7 |
| 20260906153307 | 30 | 294 | 0.0 | 0.0 | 0.00 | 0.00 | 0.00 | 69 | 1018.4 |
| 20260906152802 | 30 | 296 | 0.0 | 0.0 | 0.00 | 0.00 | 0.00 | 72 | 1018.4 |
| 20260906152257 | 30 | 294 | 0.0 | 0.0 | 0.00 | 0.00 | 0.00 | 71 | 1018.5 |
| 20260906151756 | 29 | 294 | 0.0 | 0.0 | 0.00 | 0.00 | 0.00 | 72 | 1018.3 |
| 20260906151252 | 29 | 294 | 0.0 | 0.0 | 0.00 | 0.00 | 0.00 | 71 | 1018.5 |
| 20260906150747 | 28 | 295 | 0.0 | 0.0 | 0.00 | 0.00 | 0.00 | 71 | 1018.6 |
| 20260906150243 | 28 | 294 | 0.0 | 0.0 | 0.00 | 0.00 | 0.00 | 73 | 1018.4 |
| 20260906145741 | 28 | 295 | 0.0 | 0.0 | 0.00 | 0.00 | 0.00 | 74 | 1018.4 |
| 20260906145240 | 28 | 294 | 0.0 | 0.0 | 0.00 | 0.00 | 0.00 | 77 | 1018.3 |
| 20260906144736 | 28 | 295 | 0.0 | 0.0 | 0.00 | 0.00 | 0.00 | 81 | 1018.3 |
| 20260906144231 | 27 | 285 | 0.0 | 0.0 | 0.00 | 0.00 | 0.00 | 80 | 1018.4 |
| 20260906143730 | 27 | 285 | 0.0 | 0.0 | 0.00 | 0.00 | 0.00 | 81 | 1018.2 |
| 20260906143227 | 27 | 285 | 0.0 | 0.0 | 0.00 | 0.00 | 0.00 | 80 | 1018.3 |
| 20260906142727 | 27 | 285 | 0.0 | 0.0 | 0.00 | 0.00 | 0.00 | 80 | 1018.3 |
| 20260906142222 | 27 | 296 | 0.0 | 0.0 | 0.00 | 0.00 | 0.00 | 81 | 1018.3 |
| 20260906141721 | 26 | 296 | 0.0 | 0.0 | 0.00 | 0.00 | 0.00 | 82 | 1018.3 |
| 20260906141216 | 26 | 296 | 0.0 | 0.0 | 0.00 | 0.00 | 0.00 | 85 | 1018.5 |
| 20260906140715 | 26 | 295 | 0.0 | 0.0 | 0.00 | 0.00 | 0.00 | 85 | 1018.5 |
| 20260906140210 | 26 | 295 | 0.0 | 0.0 | 0.00 | 0.00 | 0.00 | 85 | 1018.4 |
| 20260906135707 | 26 | 284 | 0.0 | 0.0 | 0.00 | 0.00 | 0.00 | 85 | 1018.7 |
| 20260906135203 | 25 | 283 | 0.0 | 0.0 | 0.00 | 0.00 | 0.00 | 86 | 1018.5 |
| 20260906134658 | 25 | 283 | 0.0 | 0.0 | 0.00 | 0.00 | 0.00 | 88 | 1018.5 |
| 20260906134153 | 25 | 283 | 0.0 | 0.0 | 0.00 | 0.00 | 0.00 | 88 | 1018.6 |
| 20260906133649 | 25 | 283 | 0.0 | 0.0 | 0.00 | 0.00 | 0.00 | 88 | 1018.4 |
| 20260906133144 | 24 | 283 | 0.0 | 0.0 | 0.00 | 0.00 | 0.00 | 89 | 1018.6 |
| 20260906132639 | 24 | 283 | 0.0 | 0.0 | 0.00 | 0.00 | 0.00 | 89 | 1018.3 |
| 20260906132135 | 23 | 283 | 0.0 | 0.0 | 0.00 | 0.00 | 0.00 | 89 | 1018.4 |
| 20260906131630 | 23 | 283 | 0.0 | 0.0 | 0.00 | 0.00 | 0.00 | 89 | 1018.4 |
| 20260906131125 | 23 | 283 | 0.0 | 0.0 | 0.00 | 0.00 | 0.00 | 89 | 1018.8 |
| 20260906130620 | 23 | 283 | 0.0 | 0.0 | 0.00 | 0.00 | 0.00 | 89 | 1018.5 |
| 20260906130115 | 23 | 283 | 0.0 | 0.0 | 0.00 | 0.00 | 0.00 | 89 | 1018.6 |
| 20260906125607 | 23 | 283 | 0.0 | 0.0 | 0.00 | 0.00 | 0.00 | 89 | 1018.7 |
| 20260906125106 | 23 | 283 | 0.0 | 0.0 | 0.00 | 0.00 | 0.00 | 89 | 1018.5 |
| 20260906124602 | 23 | 283 | 0.0 | 0.0 | 0.00 | 0.00 | 0.00 | 89 | 1018.6 |
| 20260906124057 | 22 | 283 | 0.0 | 0.0 | 0.00 | 0.00 | 0.00 | 89 | 1018.6 |
| 20260906123556 | 22 | 283 | 0.0 | 0.0 | 0.00 | 0.00 | 0.00 | 89 | 1018.5 |
| 20260906123051 | 22 | 283 | 0.0 | 0.0 | 0.00 | 0.00 | 0.00 | 89 | 1018.5 |
| 20260906122550 | 22 | 283 | 0.0 | 0.0 | 0.00 | 0.00 | 0.00 | 89 | 1018.4 |
| 20260906122047 | 22 | 283 | 0.0 | 0.0 | 0.00 | 0.00 | 0.00 | 89 | 1018.2 |
| 20260906121542 | 22 | 283 | 0.0 | 0.0 | 0.00 | 0.00 | 0.00 | 89 | 1018.5 |
| 20260906121039 | 22 | 283 | 0.0 | 0.0 | 0.00 | 0.00 | 0.00 | 89 | 1018.2 |
| 20260906120534 | 22 | 283 | 0.0 | 0.0 | 0.00 | 0.00 | 0.00 | 89 | 1018.1 |
| 20260906120031 | 22 | 283 | 0.0 | 0.0 | 0.00 | 0.00 | 0.00 | 89 | 1018.2 |
| 20260906115531 | 22 | 283 | 0.0 | 0.0 | 0.00 | 0.00 | 0.00 | 89 | 1018.4 |
| 20260906115026 | 22 | 283 | 0.0 | 0.0 | 0.00 | 0.00 | 0.00 | 89 | 1018.2 |
| 20260906114520 | 22 | 283 | 0.0 | 0.0 | 0.00 | 0.00 | 0.00 | 89 | 1018.0 |
| 20260906114016 | 22 | 283 | 0.0 | 0.0 | 0.00 | 0.00 | 0.00 | 89 | 1018.2 |
| 20260906113515 | 22 | 283 | 0.0 | 0.0 | 0.00 | 0.00 | 0.00 | 89 | 1018.2 |
| 20260906113010 | 22 | 283 | 0.0 | 0.0 | 0.00 | 0.00 | 0.00 | 89 | 1018.2 |
| 20260906112505 | 22 | 283 | 0.0 | 0.0 | 0.00 | 0.00 | 0.00 | 89 | 1018.2 |
| 20260906112002 | 22 | 283 | 0.0 | 0.0 | 0.00 | 0.00 | 0.00 | 89 | 1018.1 |
| 20260906111501 | 22 | 283 | 0.0 | 0.0 | 0.00 | 0.00 | 0.00 | 89 | 1018.0 |
| 20260906110956 | 22 | 283 | 0.0 | 0.0 | 0.00 | 0.00 | 0.00 | 89 | 1017.9 |
| 20260906110450 | 22 | 283 | 0.0 | 0.0 | 0.00 | 0.00 | 0.00 | 89 | 1018.1 |
| 20260906105949 | -17 | 0.0 | 0.0 | 0.00 | 0.00 | 0.00 | 1018.0 | ||
| 20260906105445 | 22 | 283 | 0.0 | 0.0 | 0.00 | 0.00 | 0.00 | 89 | 1017.9 |
| 20260906104942 | 22 | 283 | 0.0 | 0.0 | 0.00 | 0.00 | 0.00 | 89 | 1017.9 |
| 20260906104440 | 22 | 283 | 0.0 | 0.0 | 0.00 | 0.00 | 0.00 | 89 | 1018.0 |
| 20260906103939 | 22 | 283 | 0.0 | 0.0 | 0.00 | 0.00 | 0.00 | 89 | 1018.2 |
| 20260906103437 | 22 | 283 | 0.0 | 0.0 | 0.00 | 0.00 | 0.00 | 89 | 1018.3 |
| 20260906102932 | 22 | 283 | 0.0 | 0.0 | 0.00 | 0.00 | 0.00 | 89 | 1018.0 |
| 20260906102427 | 22 | 283 | 0.0 | 0.0 | 0.00 | 0.00 | 0.00 | 89 | 1018.1 |
| 20260906101922 | 22 | 283 | 0.0 | 0.0 | 0.00 | 0.00 | 0.00 | 89 | 1018.0 |
| 20260906101417 | 22 | 283 | 0.0 | 0.0 | 0.00 | 0.00 | 0.00 | 89 | 1018.1 |
| 20260906100912 | 22 | 283 | 0.0 | 0.0 | 0.00 | 0.00 | 0.00 | 89 | 1018.1 |
| 20260906100412 | 22 | 283 | 0.0 | 0.0 | 0.00 | 0.00 | 0.00 | 89 | 1018.1 |
| 20260906095906 | 22 | 283 | 0.0 | 0.0 | 0.00 | 0.00 | 0.00 | 89 | 1018.0 |
| 20260906095402 | 22 | 283 | 0.0 | 0.0 | 0.00 | 0.00 | 0.00 | 89 | 1017.8 |
| 20260906094902 | 22 | 283 | 0.0 | 0.0 | 0.00 | 0.00 | 0.00 | 89 | 1018.1 |
| 20260906094356 | 22 | 283 | 0.0 | 0.0 | 0.00 | 0.00 | 0.00 | 89 | 1017.9 |
| 20260906093847 | 22 | 283 | 0.0 | 0.0 | 0.00 | 0.00 | 0.00 | 89 | 1018.1 |
| 20260906093343 | 22 | 283 | 0.0 | 0.0 | 0.00 | 0.00 | 0.00 | 89 | 1017.8 |
| 20260906092842 | 22 | 283 | 0.0 | 0.0 | 0.00 | 0.00 | 0.00 | 89 | 1017.9 |
| 20260906092337 | 22 | 283 | 0.0 | 0.0 | 0.00 | 0.00 | 0.00 | 89 | 1017.9 |
| 20260906091833 | 22 | 270 | 0.0 | 0.0 | 0.00 | 0.00 | 0.00 | 89 | 1018.1 |
| 20260906091329 | 22 | 268 | 0.0 | 0.0 | 0.00 | 0.00 | 0.00 | 89 | 1017.7 |
| 20260906090826 | 22 | 281 | 0.0 | 0.0 | 0.00 | 0.00 | 0.00 | 89 | 1017.8 |
| 20260906090325 | 22 | 283 | 0.0 | 0.0 | 0.00 | 0.00 | 0.00 | 89 | 1017.8 |
| 20260906085825 | 22 | 283 | 0.0 | 0.0 | 0.00 | 0.00 | 0.00 | 89 | 1017.9 |
| 20260906085324 | 22 | 283 | 0.0 | 0.0 | 0.00 | 0.00 | 0.00 | 89 | 1017.8 |
| 20260906084819 | 22 | 283 | 0.0 | 0.0 | 0.00 | 0.00 | 0.00 | 89 | 1017.9 |
| 20260906084318 | 22 | 282 | 0.0 | 0.0 | 0.00 | 0.00 | 0.00 | 89 | 1017.8 |
| 20260906083813 | 22 | 283 | 0.0 | 0.0 | 0.00 | 0.00 | 0.00 | 89 | 1017.7 |
| 20260906083309 | 22 | 283 | 0.0 | 0.0 | 0.00 | 0.00 | 0.00 | 89 | 1017.7 |
| 20260906082803 | 22 | 283 | 0.0 | 0.0 | 0.00 | 0.00 | 0.00 | 89 | 1017.5 |
| 20260906082258 | 22 | 283 | 0.0 | 0.0 | 0.00 | 0.00 | 0.00 | 89 | 1017.2 |
| 20260906081754 | 22 | 283 | 0.0 | 0.0 | 0.00 | 0.00 | 0.00 | 89 | 1017.6 |
| 20260906081249 | 22 | 283 | 0.0 | 0.0 | 0.00 | 0.00 | 0.00 | 89 | 1017.6 |
| 20260906080746 | 22 | 283 | 0.0 | 0.0 | 0.00 | 0.00 | 0.00 | 89 | 1017.8 |
| 20260906080242 | 22 | 283 | 0.0 | 0.0 | 0.00 | 0.00 | 0.00 | 89 | 1017.5 |
| 20260906075735 | 22 | 283 | 0.0 | 0.0 | 0.00 | 0.00 | 0.00 | 89 | 1017.8 |
| 20260906075230 | 22 | 283 | 0.0 | 0.0 | 0.00 | 0.00 | 0.00 | 89 | 1017.9 |
| 20260906074725 | 22 | 283 | 0.0 | 0.0 | 0.00 | 0.00 | 0.00 | 89 | 1017.6 |
| 20260906074225 | 22 | 283 | 0.0 | 0.0 | 0.00 | 0.00 | 0.00 | 89 | 1017.7 |
| 20260906073725 | 22 | 283 | 0.0 | 0.0 | 0.00 | 0.00 | 0.00 | 89 | 1017.7 |
| 20260906073220 | 22 | 282 | 0.0 | 0.0 | 0.00 | 0.00 | 0.00 | 89 | 1017.7 |
| 20260906072715 | 22 | 283 | 0.0 | 0.0 | 0.00 | 0.00 | 0.00 | 89 | 1017.7 |
| 20260906072211 | 22 | 283 | 0.0 | 0.0 | 0.00 | 0.00 | 0.00 | 89 | 1017.7 |
| 20260906071707 | 22 | 283 | 0.0 | 0.0 | 0.00 | 0.00 | 0.00 | 89 | 1017.9 |
| 20260906071206 | 22 | 283 | 0.0 | 0.0 | 0.00 | 0.00 | 0.00 | 89 | 1017.7 |
| 20260906070703 | 22 | 269 | 0.0 | 0.0 | 0.00 | 0.00 | 0.00 | 89 | 1018.0 |
| 20260906070158 | 22 | 269 | 0.0 | 0.0 | 0.00 | 0.00 | 0.00 | 89 | 1018.0 |
| 20260906065658 | 22 | 268 | 0.0 | 0.0 | 0.00 | 0.00 | 0.00 | 89 | 1017.7 |
| 20260906065154 | 22 | 280 | 0.0 | 0.0 | 0.00 | 0.00 | 0.00 | 89 | 1017.9 |
| 20260906064649 | 22 | 277 | 0.0 | 0.0 | 0.00 | 0.00 | 0.00 | 89 | 1017.6 |
| 20260906064144 | 22 | 277 | 0.0 | 0.0 | 0.00 | 0.00 | 0.00 | 89 | 1017.8 |
| 20260906063639 | 22 | 277 | 0.0 | 0.0 | 0.00 | 0.00 | 0.00 | 89 | 1017.8 |
| 20260906063135 | 22 | 276 | 0.0 | 0.0 | 0.00 | 0.00 | 0.00 | 89 | 1018.1 |
| 20260906062631 | 22 | 253 | 0.0 | 0.0 | 0.00 | 0.00 | 0.00 | 89 | 1018.1 |
| 20260906062129 | 22 | 283 | 0.0 | 0.0 | 0.00 | 0.00 | 0.00 | 89 | 1018.2 |
| 20260906061626 | 22 | 252 | 0.0 | 0.0 | 0.00 | 0.00 | 0.00 | 89 | 1018.1 |
| 20260906061125 | 22 | 253 | 0.0 | 0.0 | 0.00 | 0.00 | 0.00 | 89 | 1018.2 |
| 20260906060622 | 22 | 252 | 0.0 | 0.0 | 0.00 | 0.00 | 0.00 | 89 | 1018.2 |
| 20260906060119 | 22 | 249 | 0.0 | 0.0 | 0.00 | 0.00 | 0.00 | 89 | 1018.4 |
| 20260906055614 | 22 | 265 | 0.0 | 0.0 | 0.00 | 0.00 | 0.00 | 89 | 1018.1 |
| 20260906055110 | 22 | 287 | 0.0 | 0.0 | 0.00 | 0.00 | 0.00 | 89 | 1018.3 |
| 20260906054610 | 22 | 287 | 0.0 | 0.0 | 0.00 | 0.00 | 0.00 | 89 | 1018.0 |
| 20260906054100 | 22 | 287 | 0.0 | 0.0 | 0.00 | 0.00 | 0.00 | 89 | 1018.2 |
| 20260906053556 | 22 | 287 | 0.0 | 0.0 | 0.00 | 0.00 | 0.00 | 89 | 1018.1 |
| 20260906053051 | 22 | 287 | 0.0 | 0.0 | 0.00 | 0.00 | 0.00 | 89 | 1018.1 |
| 20260906052546 | 22 | 287 | 0.0 | 0.0 | 0.00 | 0.00 | 0.00 | 89 | 1018.1 |
| 20260906052044 | 22 | 287 | 0.0 | 0.0 | 0.00 | 0.00 | 0.00 | 89 | 1018.2 |
| 20260906051539 | 22 | 287 | 0.0 | 0.0 | 0.00 | 0.00 | 0.00 | 89 | 1018.5 |
| 20260906051034 | 22 | 288 | 0.0 | 0.0 | 0.00 | 0.00 | 0.00 | 89 | 1018.2 |
| 20260906050524 | 22 | 288 | 0.0 | 0.0 | 0.00 | 0.00 | 0.00 | 89 | 1018.1 |
| 20260906050024 | 22 | 287 | 0.0 | 0.0 | 0.00 | 0.00 | 0.00 | 89 | 1018.1 |
| 20260906045516 | 22 | 287 | 0.0 | 0.0 | 0.00 | 0.00 | 0.00 | 89 | 1018.0 |
| 20260906045012 | 22 | 288 | 0.0 | 0.0 | 0.00 | 0.00 | 0.00 | 89 | 1018.4 |
| 20260906044508 | 22 | 288 | 0.0 | 0.0 | 0.00 | 0.00 | 0.00 | 89 | 1018.4 |
| 20260906044003 | 22 | 288 | 0.0 | 0.0 | 0.00 | 0.00 | 0.00 | 89 | 1017.9 |
| 20260906043459 | 22 | 287 | 0.0 | 0.0 | 0.00 | 0.00 | 0.00 | 89 | 1018.1 |
| 20260906042954 | 22 | 287 | 0.0 | 0.0 | 0.00 | 0.00 | 0.00 | 89 | 1018.1 |
| 20260906042454 | 22 | 287 | 0.0 | 0.0 | 0.00 | 0.00 | 0.00 | 89 | 1018.3 |
| 20260906041953 | 22 | 287 | 0.0 | 0.0 | 0.00 | 0.00 | 0.00 | 89 | 1018.0 |
| 20260906041450 | 22 | 287 | 0.0 | 0.0 | 0.00 | 0.00 | 0.00 | 89 | 1018.3 |
| 20260906040949 | 22 | 288 | 0.0 | 0.0 | 0.00 | 0.00 | 0.00 | 89 | 1018.1 |
| 20260906040444 | 22 | 288 | 0.0 | 0.0 | 0.00 | 0.00 | 0.00 | 89 | 1018.0 |
| 20260906035940 | 22 | 288 | 0.0 | 0.0 | 0.00 | 0.69 | 0.69 | 89 | 1017.9 |
| 20260906035435 | 22 | 287 | 0.0 | 0.0 | 0.00 | 0.69 | 0.69 | 89 | 1018.0 |
| 20260906034931 | 22 | 288 | 0.0 | 0.0 | 0.00 | 0.69 | 0.69 | 89 | 1017.9 |
| 20260906034425 | 22 | 288 | 0.0 | 0.0 | 0.00 | 0.69 | 0.69 | 89 | 1018.2 |
| 20260906033920 | 22 | 288 | 0.0 | 0.0 | 0.00 | 0.69 | 0.69 | 89 | 1018.0 |
| 20260906033415 | 22 | 288 | 0.0 | 0.0 | 0.00 | 0.69 | 0.69 | 89 | 1017.9 |
| 20260906032911 | 22 | 286 | 0.0 | 0.0 | 0.00 | 0.69 | 0.69 | 89 | 1018.2 |
| 20260906032407 | 22 | 286 | 0.0 | 0.0 | 0.00 | 0.69 | 0.69 | 89 | 1018.3 |
| 20260906031901 | 22 | 286 | 0.0 | 0.0 | 0.00 | 0.69 | 0.69 | 89 | 1018.4 |
| 20260906031356 | 22 | 286 | 0.0 | 0.0 | 0.00 | 0.69 | 0.69 | 89 | 1018.6 |
| 20260906030852 | 22 | 286 | 0.0 | 0.0 | 0.00 | 0.69 | 0.69 | 89 | 1018.6 |
| 20260906030347 | 23 | 284 | 0.0 | 0.0 | 0.00 | 0.69 | 0.69 | 89 | 1019.0 |
| 20260906025846 | 23 | 278 | 0.0 | 0.0 | 0.00 | 0.69 | 0.69 | 89 | 1018.9 |
| 20260906025341 | 23 | 272 | 0.0 | 0.0 | 0.00 | 0.69 | 0.69 | 89 | 1019.0 |
| 20260906024840 | 23 | 289 | 0.0 | 0.0 | 0.00 | 0.69 | 0.69 | 89 | 1019.1 |
| 20260906024339 | 23 | 266 | 0.0 | 0.0 | 0.00 | 0.69 | 0.69 | 89 | 1019.3 |
| 20260906023835 | 22 | 280 | 0.0 | 0.0 | 0.00 | 0.69 | 0.69 | 89 | 1018.9 |
| 20260906023330 | 22 | 278 | 0.0 | 0.0 | 0.00 | 0.69 | 0.69 | 89 | 1019.1 |
| 20260906022826 | 22 | 277 | 0.0 | 0.0 | 0.00 | 0.69 | 0.69 | 89 | 1019.0 |
| 20260906022321 | 22 | 276 | 0.0 | 0.0 | 0.00 | 0.69 | 0.69 | 89 | 1019.0 |
| 20260906021816 | 22 | 291 | 0.0 | 0.0 | 0.00 | 0.69 | 0.69 | 89 | 1019.0 |
| 20260906021315 | 22 | 293 | 0.0 | 0.0 | 0.00 | 0.69 | 0.69 | 89 | 1018.9 |
| 20260906020810 | 22 | 281 | 0.0 | 0.0 | 0.00 | 0.69 | 0.69 | 89 | 1018.7 |
| 20260906020309 | 22 | 299 | 0.0 | 0.0 | 0.00 | 0.69 | 0.69 | 89 | 1018.9 |
| 20260906015804 | 22 | 257 | 0.0 | 0.0 | 0.00 | 0.69 | 0.69 | 89 | 1019.4 |
| 20260906015305 | 22 | 255 | 0.0 | 0.0 | 0.00 | 0.69 | 0.69 | 89 | 1019.4 |
| 20260906014757 | 22 | 237 | 0.0 | 0.0 | 0.00 | 0.69 | 0.69 | 89 | 1018.9 |
| 20260906014253 | 22 | 211 | 3.2 | 3.2 | 0.00 | 0.69 | 0.69 | 89 | 1019.0 |
| 20260906013749 | 22 | 275 | 0.0 | 0.0 | 0.00 | 0.69 | 0.69 | 89 | 1018.9 |
| 20260906013249 | 22 | 277 | 0.0 | 0.0 | 0.00 | 0.69 | 0.69 | 89 | 1018.6 |
| 20260906012744 | 22 | 280 | 0.0 | 0.0 | 0.00 | 0.69 | 0.69 | 89 | 1018.8 |
| 20260906012239 | 22 | 280 | 0.0 | 0.0 | 0.00 | 0.69 | 0.69 | 89 | 1018.6 |
| 20260906011735 | 22 | 280 | 0.0 | 0.0 | 0.00 | 0.69 | 0.69 | 89 | 1018.6 |
| 20260906011234 | 22 | 280 | 0.0 | 0.0 | 0.00 | 0.69 | 0.69 | 89 | 1018.9 |
| 20260906010730 | 22 | 278 | 0.0 | 0.0 | 0.00 | 0.69 | 0.69 | 89 | 1018.7 |
| 20260906010226 | 22 | 278 | 0.0 | 0.0 | 0.00 | 0.69 | 0.69 | 89 | 1018.4 |
| 20260906005721 | 22 | 272 | 0.0 | 0.0 | 0.00 | 0.69 | 0.69 | 89 | 1018.3 |
| 20260906005220 | 22 | 283 | 0.0 | 0.0 | 0.00 | 0.69 | 0.69 | 89 | 1017.7 |
| 20260906004720 | 22 | 283 | 0.0 | 0.0 | 0.00 | 0.69 | 0.69 | 89 | 1018.0 |
| 20260906004215 | 22 | 283 | 0.0 | 0.0 | 0.00 | 0.69 | 0.69 | 89 | 1017.7 |
| 20260906003710 | 22 | 283 | 0.0 | 0.0 | 0.00 | 0.69 | 0.69 | 89 | 1017.7 |
| 20260906003206 | 22 | 244 | 0.0 | 3.2 | 0.00 | 0.69 | 0.69 | 89 | 1017.4 |
| 20260906002706 | 22 | 244 | 0.0 | 0.0 | 0.13 | 0.69 | 0.69 | 89 | 1017.1 |
| 20260906002200 | 22 | 238 | 3.2 | 4.8 | 0.13 | 0.69 | 0.69 | 89 | 1017.6 |
| 20260906001656 | 22 | 273 | 1.6 | 3.2 | 0.18 | 0.66 | 0.66 | 89 | 1017.7 |
| 20260906001155 | 23 | 232 | 0.0 | 3.2 | 1.07 | 0.66 | 0.66 | 89 | 1017.7 |
| 20260906000651 | 23 | 224 | 3.2 | 4.8 | 3.07 | 0.64 | 0.64 | 89 | 1018.1 |
| 20260906000147 | 23 | 315 | 0.0 | 0.0 | 2.87 | 0.51 | 0.51 | 88 | 1018.3 |
| 20260905235645 | 23 | 276 | 0.0 | 0.0 | 0.71 | 0.13 | 0.13 | 87 | 1017.9 |
| 20260905235141 | 24 | 295 | 0.0 | 3.2 | 0.00 | 0.00 | 0.00 | 87 | 1018.1 |
| 20260905234636 | 25 | 300 | 4.8 | 4.8 | 0.00 | 0.00 | 0.00 | 85 | 1018.2 |
| 20260905234131 | 26 | 339 | 3.2 | 4.8 | 0.00 | 0.00 | 0.00 | 81 | 1018.3 |
| 20260905233626 | 30 | 331 | 8.0 | 8.0 | 0.00 | 0.00 | 0.00 | 70 | 1018.1 |
| 20260905233120 | 31 | 307 | 3.2 | 4.8 | 0.00 | 0.00 | 0.00 | 63 | 1017.9 |
| 20260905232616 | 31 | 331 | 0.0 | 0.0 | 0.00 | 0.00 | 0.00 | 66 | 1017.4 |
| 20260905232112 | 31 | 266 | 0.0 | 0.0 | 0.00 | 0.00 | 0.00 | 65 | 1016.6 |
| 20260905231612 | 31 | 148 | 3.2 | 4.8 | 0.00 | 0.00 | 0.00 | 65 | 1016.7 |
| 20260905231108 | 31 | 213 | 3.2 | 4.8 | 0.00 | 0.00 | 0.00 | 65 | 1016.7 |
| 20260905230604 | 31 | 237 | 4.8 | 4.8 | 0.00 | 0.00 | 0.00 | 65 | 1016.8 |
| 20260905225601 | 31 | 243 | 4.8 | 4.8 | 0.00 | 0.00 | 0.00 | 66 | 1016.8 |
| 20260905225056 | 31 | 243 | 4.8 | 8.0 | 0.00 | 0.00 | 0.00 | 65 | 1016.9 |
| 20260905224556 | 32 | 198 | 4.8 | 8.0 | 0.00 | 0.00 | 0.00 | 65 | 1016.7 |
| 20260905224055 | 32 | 242 | 4.8 | 8.0 | 0.00 | 0.00 | 0.00 | 65 | 1016.7 |
| 20260905223553 | 32 | 197 | 4.8 | 8.0 | 0.00 | 0.00 | 0.00 | 64 | 1016.9 |
| 20260905223049 | 32 | 185 | 4.8 | 4.8 | 0.00 | 0.00 | 0.00 | 63 | 1016.8 |
| 20260905222549 | 32 | 246 | 3.2 | 4.8 | 0.00 | 0.00 | 0.00 | 63 | 1016.6 |
| 20260905222044 | 32 | 234 | 6.4 | 8.0 | 0.00 | 0.00 | 0.00 | 63 | 1016.4 |
| 20260905221540 | 32 | 266 | 6.4 | 11.3 | 0.00 | 0.00 | 0.00 | 62 | 1016.6 |
| 20260905221036 | 33 | 247 | 1.6 | 3.2 | 0.00 | 0.00 | 0.00 | 61 | 1016.7 |
| 20260905220531 | 32 | 259 | 0.0 | 0.0 | 0.00 | 0.00 | 0.00 | 61 | 1016.5 |
| 20260905220028 | 33 | 240 | 6.4 | 8.0 | 0.00 | 0.00 | 0.00 | 60 | 1016.6 |
| 20260905215526 | 33 | 274 | 4.8 | 8.0 | 0.00 | 0.00 | 0.00 | 60 | 1016.2 |
| 20260905215023 | 33 | 251 | 3.2 | 4.8 | 0.00 | 0.00 | 0.00 | 59 | 1016.4 |
| 20260905214519 | 33 | 260 | 0.0 | 0.0 | 0.00 | 0.00 | 0.00 | 60 | 1016.2 |
| 20260905214014 | 33 | 208 | 4.8 | 4.8 | 0.00 | 0.00 | 0.00 | 61 | 1016.3 |
| 20260905213509 | 33 | 268 | 0.0 | 3.2 | 0.00 | 0.00 | 0.00 | 61 | 1016.5 |
| 20260905213004 | 33 | 232 | 6.4 | 8.0 | 0.00 | 0.00 | 0.00 | 61 | 1016.3 |
| 20260905212459 | 34 | 162 | 3.2 | 4.8 | 0.00 | 0.00 | 0.00 | 59 | 1016.4 |
| 20260905211958 | 34 | 236 | 3.2 | 3.2 | 0.00 | 0.00 | 0.00 | 57 | 1016.4 |
| 20260905211454 | 35 | 117 | 4.8 | 8.0 | 0.00 | 0.00 | 0.00 | 55 | 1016.3 |
| 20260905210949 | 35 | 260 | 3.2 | 4.8 | 0.00 | 0.00 | 0.00 | 45 | 1016.4 |
| 20260905210445 | 35 | 289 | 0.0 | 0.0 | 0.00 | 0.00 | 0.00 | 46 | 1016.3 |
| 20260905205944 | 35 | 289 | 0.0 | 0.0 | 0.00 | 0.00 | 0.00 | 45 | 1016.3 |
| 20260905205439 | 35 | 237 | 0.0 | 0.0 | 0.00 | 0.00 | 0.00 | 46 | 1016.3 |
| 20260905204938 | 35 | 288 | 0.0 | 0.0 | 0.00 | 0.00 | 0.00 | 46 | 1016.3 |
| 20260905204434 | 35 | 281 | 0.0 | 0.0 | 0.00 | 0.00 | 0.00 | 46 | 1016.5 |
| 20260905203933 | 35 | 294 | 0.0 | 0.0 | 0.00 | 0.00 | 0.00 | 48 | 1016.6 |
| 20260905203429 | 35 | 296 | 0.0 | 0.0 | 0.00 | 0.00 | 0.00 | 49 | 1016.9 |
| 20260905202924 | 35 | 296 | 0.0 | 0.0 | 0.00 | 0.00 | 0.00 | 49 | 1016.8 |
| 20260905202419 | 35 | 278 | 0.0 | 0.0 | 0.00 | 0.00 | 0.00 | 48 | 1016.7 |
| 20260905201914 | 35 | 272 | 0.0 | 0.0 | 0.00 | 0.00 | 0.00 | 46 | 1016.9 |
| 20260905201410 | 35 | 265 | 0.0 | 0.0 | 0.00 | 0.00 | 0.00 | 46 | 1016.9 |
| 20260905200910 | 36 | 201 | 0.0 | 0.0 | 0.00 | 0.00 | 0.00 | 44 | 1017.1 |
| 20260905200405 | 35 | 279 | 0.0 | 0.0 | 0.00 | 0.00 | 0.00 | 45 | 1017.3 |
| 20260905195903 | 35 | 196 | 3.2 | 4.8 | 0.00 | 0.00 | 0.00 | 44 | 1017.5 |
| 20260905195359 | 35 | 248 | 0.0 | 0.0 | 0.00 | 0.00 | 0.00 | 46 | 1017.4 |
| 20260905194855 | 35 | 254 | 1.6 | 3.2 | 0.00 | 0.00 | 0.00 | 46 | 1017.7 |
| 20260905194354 | 35 | 240 | 0.0 | 0.0 | 0.00 | 0.00 | 0.00 | 45 | 1017.8 |
| 20260905193854 | 36 | 261 | 0.0 | 0.0 | 0.00 | 0.00 | 0.00 | 43 | 1017.4 |
| 20260905193348 | 36 | 237 | 1.6 | 3.2 | 0.00 | 0.00 | 0.00 | 42 | 1017.6 |
| 20260905192844 | 35 | 275 | 0.0 | 0.0 | 0.00 | 0.00 | 0.00 | 46 | 1017.6 |
| 20260905192340 | 35 | 275 | 0.0 | 0.0 | 0.00 | 0.00 | 0.00 | 47 | 1017.7 |
| 20260905191839 | 35 | 275 | 0.0 | 0.0 | 0.00 | 0.00 | 0.00 | 47 | 1017.6 |
| 20260905191338 | 36 | 275 | 0.0 | 3.2 | 0.00 | 0.00 | 0.00 | 45 | 1017.8 |
| 20260905190837 | 36 | 230 | 4.8 | 4.8 | 0.00 | 0.00 | 0.00 | 44 | 1017.8 |
| 20260905190337 | 35 | 300 | 0.0 | 0.0 | 0.00 | 0.00 | 0.00 | 44 | 1017.9 |
| 20260905185836 | 36 | 301 | 0.0 | 0.0 | 0.00 | 0.00 | 0.00 | 43 | 1017.9 |
| 20260905185331 | 35 | 292 | 0.0 | 0.0 | 0.00 | 0.00 | 0.00 | 44 | 1017.8 |
| 20260905184830 | 35 | 228 | 6.4 | 8.0 | 0.00 | 0.00 | 0.00 | 44 | 1017.7 |
| 20260905184330 | 35 | 142 | 0.0 | 0.0 | 0.00 | 0.00 | 0.00 | 44 | 1018.0 |
| 20260905183828 | 35 | 289 | 0.0 | 0.0 | 0.00 | 0.00 | 0.00 | 46 | 1018.0 |
| 20260905183323 | 35 | 263 | 0.0 | 0.0 | 0.00 | 0.00 | 0.00 | 46 | 1018.1 |
| 20260905182818 | 35 | 253 | 0.0 | 0.0 | 0.00 | 0.00 | 0.00 | 46 | 1018.4 |
| 20260905182318 | 35 | 164 | 0.0 | 4.8 | 0.00 | 0.00 | 0.00 | 44 | 1018.5 |
| 20260905181814 | 36 | 252 | 0.0 | 0.0 | 0.00 | 0.00 | 0.00 | 45 | 1018.4 |
| 20260905181313 | 36 | 275 | 0.0 | 0.0 | 0.00 | 0.00 | 0.00 | 45 | 1018.5 |
| 20260905180812 | 36 | 235 | 0.0 | 0.0 | 0.00 | 0.00 | 0.00 | 43 | 1018.7 |
| 20260905180307 | 35 | 228 | 0.0 | 0.0 | 0.00 | 0.00 | 0.00 | 46 | 1018.3 |
| 20260905175802 | 35 | 267 | 0.0 | 0.0 | 0.00 | 0.00 | 0.00 | 48 | 1018.4 |
| 20260905175257 | 35 | 244 | 0.0 | 0.0 | 0.00 | 0.00 | 0.00 | 49 | 1018.5 |
| 20260905174752 | 35 | 290 | 0.0 | 0.0 | 0.00 | 0.00 | 0.00 | 47 | 1018.8 |
| 20260905174248 | 35 | 282 | 0.0 | 0.0 | 0.00 | 0.00 | 0.00 | 46 | 1018.7 |
| 20260905173744 | 36 | 277 | 0.0 | 0.0 | 0.00 | 0.00 | 0.00 | 48 | 1018.9 |
| 20260905173239 | 36 | 294 | 0.0 | 0.0 | 0.00 | 0.00 | 0.00 | 44 | 1018.9 |
| 20260905172739 | 36 | 280 | 0.0 | 0.0 | 0.00 | 0.00 | 0.00 | 46 | 1018.8 |
| 20260905172238 | 35 | 246 | 0.0 | 0.0 | 0.00 | 0.00 | 0.00 | 47 | 1018.9 |
| 20260905171734 | 35 | 276 | 0.0 | 0.0 | 0.00 | 0.00 | 0.00 | 48 | 1019.1 |
| 20260905171230 | 35 | 287 | 0.0 | 0.0 | 0.00 | 0.00 | 0.00 | 50 | 1019.1 |
| 20260905170727 | 34 | 247 | 1.6 | 3.2 | 0.00 | 0.00 | 0.00 | 51 | 1019.3 |
| 20260905170222 | 34 | 245 | 0.0 | 0.0 | 0.00 | 0.00 | 0.00 | 52 | 1019.5 |
| 20260905165721 | 34 | 260 | 0.0 | 0.0 | 0.00 | 0.00 | 0.00 | 52 | 1019.5 |
| 20260905165217 | 35 | 285 | 0.0 | 0.0 | 0.00 | 0.00 | 0.00 | 51 | 1019.1 |
| 20260905164717 | 35 | 269 | 0.0 | 0.0 | 0.00 | 0.00 | 0.00 | 51 | 1019.5 |
| 20260905164217 | 35 | 284 | 0.0 | 0.0 | 0.00 | 0.00 | 0.00 | 51 | 1019.6 |
| 20260905163713 | 35 | 167 | 0.0 | 0.0 | 0.00 | 0.00 | 0.00 | 50 | 1019.7 |
| 20260905163209 | 35 | 271 | 0.0 | 0.0 | 0.00 | 0.00 | 0.00 | 52 | 1019.9 |